contact:dominique.lefevre@mio.osupytheas.fr, maurice.libes@osupytheas.fr, didier.mallarino@osupytheas.fr
Project:EMSO http://www.emso-fr.org/EMSO-France
Depth: 2436.0 m
Title:EMSO Ligure Ouest : Data MII capteur MICROCAT
DateTime_Computer,Latitude,Longitude,Temperature,Conductivity,Pressure,DateTime_Instrument
DateTime_Computer,Latitude,Longitude,degC,S m-1,dbar,DateTime_Instrument
2023-03-20T00:01:27Z,42.805,6.029,13.3027,4.60105,2470.624,2023-3-20T02:04:09Z
2023-03-20T00:04:30Z,42.805,6.029,13.3025,4.60104,2470.637,2023-3-20T02:07:13Z
2023-03-20T00:07:34Z,42.805,6.029,13.3020,4.60104,2470.614,2023-3-20T02:10:16Z
2023-03-20T00:10:37Z,42.805,6.029,13.3027,4.60104,2470.6,2023-3-20T02:13:19Z
2023-03-20T00:13:40Z,42.805,6.029,13.3024,4.60102,2470.637,2023-3-20T02:16:22Z
2023-03-20T00:16:43Z,42.805,6.029,13.3024,4.60097,2470.6,2023-3-20T02:19:25Z
2023-03-20T00:19:46Z,42.805,6.029,13.3034,4.60101,2470.614,2023-3-20T02:22:28Z
2023-03-20T00:22:49Z,42.805,6.029,13.3027,4.60104,2470.624,2023-3-20T02:25:31Z
2023-03-20T00:25:52Z,42.805,6.029,13.3031,4.60100,2470.6,2023-3-20T02:28:34Z
2023-03-20T00:28:55Z,42.805,6.029,13.3036,4.60104,2470.624,2023-3-20T02:31:37Z
2023-03-20T00:31:58Z,42.805,6.029,13.3024,4.60095,2470.553,2023-3-20T02:34:40Z
2023-03-20T00:35:01Z,42.805,6.029,13.3034,4.60117,2470.624,2023-3-20T02:37:43Z
2023-03-20T00:38:04Z,42.805,6.029,13.3030,4.60105,2470.614,2023-3-20T02:40:46Z
2023-03-20T00:41:07Z,42.805,6.029,13.3031,4.60098,2470.591,2023-3-20T02:43:50Z
2023-03-20T00:44:11Z,42.805,6.029,13.3028,4.60087,2470.637,2023-3-20T02:46:53Z
2023-03-20T00:47:14Z,42.805,6.029,13.3019,4.60091,2470.614,2023-3-20T02:49:56Z
2023-03-20T00:50:17Z,42.805,6.029,13.3026,4.60102,2470.6,2023-3-20T02:52:59Z
2023-03-20T00:53:20Z,42.805,6.029,13.3026,4.60110,2470.6,2023-3-20T02:56:02Z
2023-03-20T00:56:23Z,42.805,6.029,13.3024,4.60094,2470.637,2023-3-20T02:59:05Z
2023-03-20T00:59:26Z,42.805,6.029,13.3028,4.60096,2470.637,2023-3-20T03:02:08Z
2023-03-20T01:02:29Z,42.805,6.029,13.3032,4.60099,2470.586,2023-3-20T03:05:11Z
2023-03-20T01:05:32Z,42.805,6.029,13.3022,4.60093,2470.591,2023-3-20T03:08:14Z
2023-03-20T01:08:35Z,42.805,6.029,13.3029,4.60094,2470.591,2023-3-20T03:11:17Z
2023-03-20T01:11:38Z,42.805,6.029,13.3026,4.60097,2470.637,2023-3-20T03:14:20Z
2023-03-20T01:14:41Z,42.805,6.029,13.3031,4.60109,2470.614,2023-3-20T03:17:23Z
2023-03-20T01:17:44Z,42.805,6.029,13.3041,4.60101,2470.637,2023-3-20T03:20:26Z
2023-03-20T01:20:47Z,42.805,6.029,13.3033,4.60100,2470.614,2023-3-20T03:23:30Z
2023-03-20T01:23:50Z,42.805,6.029,13.3024,4.60094,2470.6,2023-3-20T03:26:33Z
2023-03-20T01:26:54Z,42.805,6.029,13.3026,4.60132,2470.614,2023-3-20T03:29:36Z
2023-03-20T01:29:57Z,42.805,6.029,13.3027,4.60099,2470.624,2023-3-20T03:32:39Z
2023-03-20T01:33:00Z,42.805,6.029,13.3032,4.60100,2470.624,2023-3-20T03:35:42Z
2023-03-20T01:36:03Z,42.805,6.029,13.3036,4.60099,2470.646,2023-3-20T03:38:45Z
2023-03-20T01:39:06Z,42.805,6.029,13.3032,4.60102,2470.624,2023-3-20T03:41:48Z
2023-03-20T01:42:09Z,42.805,6.029,13.3031,4.60106,2470.624,2023-3-20T03:44:51Z
2023-03-20T01:45:12Z,42.805,6.029,13.3029,4.60098,2470.6,2023-3-20T03:47:54Z
2023-03-20T01:48:15Z,42.805,6.029,13.3022,4.60099,2470.6,2023-3-20T03:50:57Z
2023-03-20T01:51:18Z,42.805,6.029,13.3026,4.60093,2470.624,2023-3-20T03:54:00Z
2023-03-20T01:54:21Z,42.805,6.029,13.3034,4.60115,2470.646,2023-3-20T03:57:03Z
2023-03-20T01:57:24Z,42.805,6.029,13.3032,4.60110,2470.624,2023-3-20T04:00:07Z
2023-03-20T02:00:27Z,42.805,6.029,13.3020,4.60096,2470.646,2023-3-20T04:03:10Z
2023-03-20T02:03:31Z,42.805,6.029,13.3035,4.60105,2470.637,2023-3-20T04:06:13Z
2023-03-20T02:06:34Z,42.805,6.029,13.3026,4.60102,2470.624,2023-3-20T04:09:16Z
2023-03-20T02:09:37Z,42.805,6.029,13.3026,4.60094,2470.61,2023-3-20T04:12:19Z
2023-03-20T02:12:40Z,42.805,6.029,13.3027,4.60096,2470.661,2023-3-20T04:15:22Z
2023-03-20T02:15:43Z,42.805,6.029,13.3021,4.60094,2470.646,2023-3-20T04:18:25Z
2023-03-20T02:18:46Z,42.805,6.029,13.3024,4.60089,2470.661,2023-3-20T04:21:28Z
2023-03-20T02:21:49Z,42.805,6.029,13.3026,4.60095,2470.661,2023-3-20T04:24:31Z
2023-03-20T02:24:52Z,42.805,6.029,13.3028,4.60095,2470.661,2023-3-20T04:27:34Z
2023-03-20T02:27:55Z,42.805,6.029,13.3026,4.60094,2470.646,2023-3-20T04:30:37Z
2023-03-20T02:30:58Z,42.805,6.029,13.3027,4.60098,2470.67,2023-3-20T04:33:40Z
2023-03-20T02:34:01Z,42.805,6.029,13.3025,4.60094,2470.661,2023-3-20T04:36:43Z
2023-03-20T02:37:04Z,42.805,6.029,13.3023,4.60090,2470.67,2023-3-20T04:39:47Z
2023-03-20T02:40:07Z,42.805,6.029,13.3021,4.60095,2470.624,2023-3-20T04:42:50Z
2023-03-20T02:43:11Z,42.805,6.029,13.3021,4.60099,2470.67,2023-3-20T04:45:53Z
2023-03-20T02:46:14Z,42.805,6.029,13.3026,4.60117,2470.67,2023-3-20T04:48:56Z
2023-03-20T02:49:17Z,42.805,6.029,13.3039,4.60131,2470.684,2023-3-20T04:51:59Z
2023-03-20T02:52:20Z,42.805,6.029,13.3026,4.60103,2470.67,2023-3-20T04:55:02Z
2023-03-20T02:55:23Z,42.805,6.029,13.3027,4.60092,2470.707,2023-3-20T04:58:05Z
2023-03-20T02:58:26Z,42.805,6.029,13.3030,4.60106,2470.684,2023-3-20T05:01:08Z
2023-03-20T03:01:29Z,42.805,6.029,13.3028,4.60104,2470.693,2023-3-20T05:04:11Z
2023-03-20T03:04:32Z,42.805,6.029,13.3025,4.60089,2470.67,2023-3-20T05:07:14Z
2023-03-20T03:07:35Z,42.805,6.029,13.3026,4.60097,2470.717,2023-3-20T05:10:17Z
2023-03-20T03:10:38Z,42.805,6.029,13.3024,4.60094,2470.717,2023-3-20T05:13:20Z
2023-03-20T03:13:41Z,42.805,6.029,13.3024,4.60091,2470.707,2023-3-20T05:16:24Z
2023-03-20T03:16:44Z,42.805,6.029,13.3022,4.60097,2470.707,2023-3-20T05:19:27Z
2023-03-20T03:19:48Z,42.805,6.029,13.3029,4.60095,2470.717,2023-3-20T05:22:30Z
2023-03-20T03:22:51Z,42.805,6.029,13.3036,4.60116,2470.707,2023-3-20T05:25:33Z
2023-03-20T03:25:54Z,42.805,6.029,13.3022,4.60096,2470.73,2023-3-20T05:28:36Z
2023-03-20T03:28:57Z,42.805,6.029,13.3029,4.60095,2470.717,2023-3-20T05:31:39Z
2023-03-20T03:32:00Z,42.805,6.029,13.3024,4.60087,2470.717,2023-3-20T05:34:42Z
2023-03-20T03:35:03Z,42.805,6.029,13.3026,4.60097,2470.754,2023-3-20T05:37:45Z
2023-03-20T03:38:06Z,42.805,6.029,13.3024,4.60092,2470.717,2023-3-20T05:40:48Z
2023-03-20T03:41:09Z,42.805,6.029,13.3029,4.60095,2470.763,2023-3-20T05:43:51Z
2023-03-20T03:44:12Z,42.805,6.029,13.3026,4.60092,2470.74,2023-3-20T05:46:54Z
2023-03-20T03:47:15Z,42.805,6.029,13.3027,4.60093,2470.74,2023-3-20T05:49:57Z
2023-03-20T03:50:18Z,42.805,6.029,13.3031,4.60087,2470.763,2023-3-20T05:53:01Z
2023-03-20T03:53:21Z,42.805,6.029,13.3025,4.60102,2470.74,2023-3-20T05:56:04Z
2023-03-20T03:56:25Z,42.805,6.029,13.3033,4.60097,2470.777,2023-3-20T05:59:07Z
2023-03-20T03:59:28Z,42.805,6.029,13.3026,4.60090,2470.763,2023-3-20T06:02:10Z
2023-03-20T04:02:31Z,42.805,6.029,13.3031,4.60117,2470.74,2023-3-20T06:05:13Z
2023-03-20T04:05:34Z,42.805,6.029,13.3031,4.60107,2470.787,2023-3-20T06:08:16Z
2023-03-20T04:08:37Z,42.805,6.029,13.3026,4.60094,2470.75,2023-3-20T06:11:19Z
2023-03-20T04:11:40Z,42.805,6.029,13.3029,4.60094,2470.787,2023-3-20T06:14:22Z
2023-03-20T04:14:43Z,42.805,6.029,13.3029,4.60099,2470.81,2023-3-20T06:17:25Z
2023-03-20T04:17:46Z,42.805,6.029,13.3026,4.60094,2470.8,2023-3-20T06:20:28Z
2023-03-20T04:20:49Z,42.805,6.029,13.3028,4.60092,2470.787,2023-3-20T06:23:31Z
2023-03-20T04:23:52Z,42.805,6.029,13.3031,4.60114,2470.833,2023-3-20T06:26:34Z
2023-03-20T04:26:55Z,42.805,6.029,13.3026,4.60098,2470.81,2023-3-20T06:29:37Z
2023-03-20T04:29:58Z,42.805,6.029,13.3032,4.60113,2470.763,2023-3-20T06:32:41Z
2023-03-20T04:33:01Z,42.805,6.029,13.3025,4.60102,2470.81,2023-3-20T06:35:44Z
2023-03-20T04:36:05Z,42.805,6.029,13.3023,4.60097,2470.824,2023-3-20T06:38:47Z
2023-03-20T04:39:08Z,42.805,6.029,13.3024,4.60106,2470.81,2023-3-20T06:41:50Z
2023-03-20T04:42:11Z,42.805,6.029,13.3030,4.60099,2470.824,2023-3-20T06:44:53Z
2023-03-20T04:45:14Z,42.805,6.029,13.3028,4.60092,2470.787,2023-3-20T06:47:56Z
2023-03-20T04:48:17Z,42.805,6.029,13.3036,4.60109,2470.833,2023-3-20T06:50:59Z
2023-03-20T04:51:20Z,42.805,6.029,13.3028,4.60102,2470.833,2023-3-20T06:54:02Z
2023-03-20T04:54:23Z,42.805,6.029,13.3036,4.60114,2470.824,2023-3-20T06:57:05Z
2023-03-20T04:57:26Z,42.805,6.029,13.3025,4.60097,2470.81,2023-3-20T07:00:08Z
2023-03-20T05:00:29Z,42.805,6.029,13.3029,4.60102,2470.833,2023-3-20T07:03:11Z
2023-03-20T05:03:32Z,42.805,6.029,13.3027,4.60096,2470.833,2023-3-20T07:06:14Z
2023-03-20T05:06:35Z,42.805,6.029,13.3040,4.60127,2470.847,2023-3-20T07:09:18Z
2023-03-20T05:09:38Z,42.805,6.029,13.3038,4.60122,2470.833,2023-3-20T07:12:21Z
2023-03-20T05:12:42Z,42.805,6.029,13.3032,4.60103,2470.88,2023-3-20T07:15:24Z
2023-03-20T05:15:45Z,42.805,6.029,13.3026,4.60102,2470.833,2023-3-20T07:18:27Z
2023-03-20T05:18:48Z,42.805,6.029,13.3035,4.60109,2470.88,2023-3-20T07:21:30Z
2023-03-20T05:21:51Z,42.805,6.029,13.3043,4.60109,2470.847,2023-3-20T07:24:33Z
2023-03-20T05:24:54Z,42.805,6.029,13.3035,4.60129,2470.894,2023-3-20T07:27:36Z
2023-03-20T05:27:57Z,42.805,6.029,13.3043,4.60119,2470.894,2023-3-20T07:30:39Z
2023-03-20T05:31:00Z,42.805,6.029,13.3028,4.60110,2470.833,2023-3-20T07:33:42Z
2023-03-20T05:34:03Z,42.805,6.029,13.3040,4.60122,2470.871,2023-3-20T07:36:45Z
2023-03-20T05:37:06Z,42.805,6.029,13.3041,4.60122,2470.871,2023-3-20T07:39:48Z
2023-03-20T05:40:09Z,42.805,6.029,13.3033,4.60127,2470.857,2023-3-20T07:42:51Z
2023-03-20T05:43:12Z,42.805,6.029,13.3023,4.60097,2470.894,2023-3-20T07:45:55Z
2023-03-20T05:46:15Z,42.805,6.029,13.3029,4.60121,2470.894,2023-3-20T07:48:58Z
2023-03-20T05:49:18Z,42.805,6.029,13.3033,4.60108,2470.857,2023-3-20T07:52:01Z
2023-03-20T05:52:22Z,42.805,6.029,13.3042,4.60112,2470.857,2023-3-20T07:55:04Z
2023-03-20T05:55:25Z,42.805,6.029,13.3032,4.60099,2470.871,2023-3-20T07:58:07Z
2023-03-20T05:58:28Z,42.805,6.029,13.3026,4.60107,2470.857,2023-3-20T08:01:10Z
2023-03-20T06:01:31Z,42.805,6.029,13.3031,4.60112,2470.857,2023-3-20T08:04:13Z
2023-03-20T06:04:34Z,42.805,6.029,13.3044,4.60129,2470.857,2023-3-20T08:07:16Z
2023-03-20T06:07:37Z,42.805,6.029,13.3031,4.60110,2470.847,2023-3-20T08:10:19Z
2023-03-20T06:10:40Z,42.805,6.029,13.3037,4.60115,2470.857,2023-3-20T08:13:22Z
2023-03-20T06:13:43Z,42.805,6.029,13.3041,4.60120,2470.88,2023-3-20T08:16:25Z
2023-03-20T06:16:46Z,42.805,6.029,13.3039,4.60125,2470.88,2023-3-20T08:19:28Z
2023-03-20T06:19:49Z,42.805,6.029,13.3025,4.60108,2470.88,2023-3-20T08:22:31Z
2023-03-20T06:22:52Z,42.805,6.029,13.3042,4.60114,2470.833,2023-3-20T08:25:35Z
2023-03-20T06:25:55Z,42.805,6.029,13.3039,4.60133,2470.88,2023-3-20T08:28:38Z
2023-03-20T06:28:58Z,42.805,6.029,13.3042,4.60130,2470.88,2023-3-20T08:31:41Z
2023-03-20T06:32:02Z,42.805,6.029,13.3039,4.60112,2470.871,2023-3-20T08:34:44Z
2023-03-20T06:35:05Z,42.805,6.029,13.3042,4.60127,2470.871,2023-3-20T08:37:47Z
2023-03-20T06:38:08Z,42.805,6.029,13.3032,4.60122,2470.871,2023-3-20T08:40:50Z
2023-03-20T06:41:11Z,42.805,6.029,13.3043,4.60128,2470.88,2023-3-20T08:43:53Z
2023-03-20T06:44:14Z,42.805,6.029,13.3045,4.60132,2470.857,2023-3-20T08:46:56Z
2023-03-20T06:47:17Z,42.805,6.029,13.3036,4.60125,2470.857,2023-3-20T08:49:59Z
2023-03-20T06:50:20Z,42.805,6.029,13.3035,4.60132,2470.88,2023-3-20T08:53:02Z
2023-03-20T06:53:23Z,42.805,6.029,13.3029,4.60113,2470.88,2023-3-20T08:56:05Z
2023-03-20T06:56:26Z,42.805,6.029,13.3036,4.60142,2470.88,2023-3-20T08:59:08Z
2023-03-20T06:59:29Z,42.805,6.029,13.3044,4.60134,2470.88,2023-3-20T09:02:12Z
2023-03-20T07:02:32Z,42.805,6.029,13.3048,4.60132,2470.857,2023-3-20T09:05:15Z
2023-03-20T07:05:35Z,42.805,6.029,13.3030,4.60120,2470.871,2023-3-20T09:08:18Z
2023-03-20T07:08:38Z,42.805,6.029,13.3038,4.60132,2470.857,2023-3-20T09:11:21Z
2023-03-20T07:11:42Z,42.805,6.029,13.3035,4.60145,2470.88,2023-3-20T09:14:24Z
2023-03-20T07:14:45Z,42.805,6.029,13.3036,4.60135,2470.857,2023-3-20T09:17:27Z
2023-03-20T07:17:48Z,42.805,6.029,13.3036,4.60132,2470.857,2023-3-20T09:20:30Z
2023-03-20T07:20:51Z,42.805,6.029,13.3041,4.60119,2470.894,2023-3-20T09:23:33Z
2023-03-20T07:23:54Z,42.805,6.029,13.3035,4.60125,2470.894,2023-3-20T09:26:36Z
2023-03-20T07:26:57Z,42.805,6.029,13.3036,4.60117,2470.857,2023-3-20T09:29:39Z
2023-03-20T07:30:00Z,42.805,6.029,13.3031,4.60107,2470.894,2023-3-20T09:32:42Z
2023-03-20T07:33:03Z,42.805,6.029,13.3043,4.60114,2470.894,2023-3-20T09:35:45Z
2023-03-20T07:36:06Z,42.805,6.029,13.3025,4.60104,2470.857,2023-3-20T09:38:49Z
2023-03-20T07:39:09Z,42.805,6.029,13.3036,4.60123,2470.857,2023-3-20T09:41:52Z
2023-03-20T07:42:12Z,42.805,6.029,13.3032,4.60120,2470.833,2023-3-20T09:44:55Z
2023-03-20T07:45:15Z,42.805,6.029,13.3035,4.60097,2470.857,2023-3-20T09:47:58Z
2023-03-20T07:48:19Z,42.805,6.029,13.3029,4.60102,2470.857,2023-3-20T09:51:01Z
2023-03-20T07:51:22Z,42.805,6.029,13.3026,4.60116,2470.843,2023-3-20T09:54:04Z
2023-03-20T07:54:25Z,42.805,6.029,13.3045,4.60125,2470.824,2023-3-20T09:57:07Z
2023-03-20T07:57:28Z,42.805,6.029,13.3044,4.60129,2470.857,2023-3-20T10:00:10Z
2023-03-20T08:00:31Z,42.805,6.029,13.3045,4.60117,2470.81,2023-3-20T10:03:13Z
2023-03-20T08:03:34Z,42.805,6.029,13.3027,4.60130,2470.857,2023-3-20T10:06:16Z
2023-03-20T08:06:37Z,42.805,6.029,13.3042,4.60130,2470.833,2023-3-20T10:09:19Z
2023-03-20T08:09:40Z,42.805,6.029,13.3039,4.60119,2470.81,2023-3-20T10:12:22Z
2023-03-20T08:12:43Z,42.805,6.029,13.3025,4.60104,2470.847,2023-3-20T10:15:25Z
2023-03-20T08:15:46Z,42.805,6.029,13.3024,4.60103,2470.833,2023-3-20T10:18:29Z
2023-03-20T08:18:49Z,42.805,6.029,13.3036,4.60121,2470.81,2023-3-20T10:21:32Z
2023-03-20T08:21:52Z,42.805,6.029,13.3034,4.60146,2470.857,2023-3-20T10:24:35Z
2023-03-20T08:24:56Z,42.805,6.029,13.3033,4.60119,2470.833,2023-3-20T10:27:38Z
2023-03-20T08:27:59Z,42.805,6.029,13.3041,4.60113,2470.833,2023-3-20T10:30:41Z
2023-03-20T08:31:02Z,42.805,6.029,13.3040,4.60125,2470.847,2023-3-20T10:33:44Z
2023-03-20T08:34:05Z,42.805,6.029,13.3032,4.60123,2470.833,2023-3-20T10:36:47Z
2023-03-20T08:37:08Z,42.805,6.029,13.3026,4.60114,2470.787,2023-3-20T10:39:50Z
2023-03-20T08:40:11Z,42.805,6.029,13.3034,4.60110,2470.787,2023-3-20T10:42:53Z
2023-03-20T08:43:14Z,42.805,6.029,13.3039,4.60119,2470.847,2023-3-20T10:45:56Z
2023-03-20T08:46:17Z,42.805,6.029,13.3033,4.60121,2470.8,2023-3-20T10:48:59Z
2023-03-20T08:49:20Z,42.805,6.029,13.3024,4.60120,2470.763,2023-3-20T10:52:03Z
2023-03-20T08:52:23Z,42.805,6.029,13.3037,4.60102,2470.787,2023-3-20T10:55:06Z
2023-03-20T08:55:26Z,42.805,6.029,13.3036,4.60108,2470.81,2023-3-20T10:58:09Z
2023-03-20T08:58:30Z,42.805,6.029,13.3033,4.60128,2470.81,2023-3-20T11:01:12Z
2023-03-20T09:01:33Z,42.805,6.029,13.3034,4.60115,2470.787,2023-3-20T11:04:15Z
2023-03-20T09:04:36Z,42.805,6.029,13.3039,4.60118,2470.824,2023-3-20T11:07:18Z
2023-03-20T09:07:39Z,42.805,6.029,13.3045,4.60122,2470.81,2023-3-20T11:10:21Z
2023-03-20T09:10:42Z,42.805,6.029,13.3041,4.60121,2470.81,2023-3-20T11:13:24Z
2023-03-20T09:13:45Z,42.805,6.029,13.3035,4.60127,2470.763,2023-3-20T11:16:27Z
2023-03-20T09:16:48Z,42.805,6.029,13.3032,4.60123,2470.8,2023-3-20T11:19:30Z
2023-03-20T09:19:51Z,42.805,6.029,13.3031,4.60121,2470.777,2023-3-20T11:22:33Z
2023-03-20T09:22:54Z,42.805,6.029,13.3036,4.60111,2470.74,2023-3-20T11:25:36Z
2023-03-20T09:25:57Z,42.805,6.029,13.3048,4.60132,2470.763,2023-3-20T11:28:40Z
2023-03-20T09:29:00Z,42.805,6.029,13.3022,4.60101,2470.777,2023-3-20T11:31:43Z
2023-03-20T09:32:03Z,42.805,6.029,13.3047,4.60103,2470.787,2023-3-20T11:34:46Z
2023-03-20T09:35:07Z,42.805,6.029,13.3039,4.60134,2470.74,2023-3-20T11:37:49Z
2023-03-20T09:38:10Z,42.805,6.029,13.3031,4.60117,2470.777,2023-3-20T11:40:52Z
2023-03-20T09:41:13Z,42.805,6.029,13.3028,4.60116,2470.763,2023-3-20T11:43:55Z
2023-03-20T09:44:16Z,42.805,6.029,13.3044,4.60131,2470.8,2023-3-20T11:46:58Z
2023-03-20T09:47:19Z,42.805,6.029,13.3041,4.60129,2470.74,2023-3-20T11:50:01Z
2023-03-20T09:50:22Z,42.805,6.029,13.3042,4.60131,2470.777,2023-3-20T11:53:04Z
2023-03-20T09:53:25Z,42.805,6.029,13.3032,4.60133,2470.763,2023-3-20T11:56:07Z
2023-03-20T09:56:28Z,42.805,6.029,13.3048,4.60109,2470.74,2023-3-20T11:59:10Z
2023-03-20T09:59:31Z,42.805,6.029,13.3043,4.60152,2470.777,2023-3-20T12:02:14Z
2023-03-20T10:02:34Z,42.805,6.029,13.3057,4.60142,2470.763,2023-3-20T12:05:17Z
2023-03-20T10:05:37Z,42.805,6.029,13.3042,4.60145,2470.707,2023-3-20T12:08:20Z
2023-03-20T10:08:40Z,42.805,6.029,13.3035,4.60151,2470.763,2023-3-20T12:11:23Z
2023-03-20T10:11:44Z,42.805,6.029,13.3044,4.60105,2470.74,2023-3-20T12:14:26Z
2023-03-20T10:14:47Z,42.805,6.029,13.3054,4.60122,2470.74,2023-3-20T12:17:29Z
2023-03-20T10:17:50Z,42.805,6.029,13.3049,4.60132,2470.693,2023-3-20T12:20:32Z
2023-03-20T10:20:53Z,42.805,6.029,13.3040,4.60127,2470.717,2023-3-20T12:23:35Z
2023-03-20T10:23:56Z,42.805,6.029,13.3056,4.60140,2470.754,2023-3-20T12:26:38Z
2023-03-20T10:26:59Z,42.805,6.029,13.3059,4.60137,2470.73,2023-3-20T12:29:41Z
2023-03-20T10:30:02Z,42.805,6.029,13.3058,4.60130,2470.717,2023-3-20T12:32:44Z
2023-03-20T10:33:05Z,42.805,6.029,13.3048,4.60155,2470.693,2023-3-20T12:35:47Z
2023-03-20T10:36:08Z,42.805,6.029,13.3054,4.60123,2470.74,2023-3-20T12:38:51Z
2023-03-20T10:39:11Z,42.805,6.029,13.3045,4.60141,2470.707,2023-3-20T12:41:54Z
2023-03-20T10:42:14Z,42.805,6.029,13.3046,4.60142,2470.74,2023-3-20T12:44:57Z
2023-03-20T10:45:17Z,42.805,6.029,13.3058,4.60125,2470.73,2023-3-20T12:48:00Z
2023-03-20T10:48:21Z,42.805,6.029,13.3043,4.60110,2470.693,2023-3-20T12:51:03Z
2023-03-20T10:51:24Z,42.805,6.029,13.3037,4.60137,2470.693,2023-3-20T12:54:06Z
2023-03-20T10:54:27Z,42.805,6.029,13.3051,4.60168,2470.717,2023-3-20T12:57:09Z
2023-03-20T10:57:30Z,42.805,6.029,13.3048,4.60162,2470.693,2023-3-20T13:00:12Z
2023-03-20T11:00:33Z,42.805,6.029,13.3052,4.60124,2470.707,2023-3-20T13:03:15Z
2023-03-20T11:03:36Z,42.805,6.029,13.3043,4.60157,2470.707,2023-3-20T13:06:18Z
2023-03-20T11:06:39Z,42.805,6.029,13.3043,4.60128,2470.707,2023-3-20T13:09:21Z
2023-03-20T11:09:42Z,42.805,6.029,13.3044,4.60125,2470.684,2023-3-20T13:12:24Z
2023-03-20T11:12:45Z,42.805,6.029,13.3054,4.60155,2470.67,2023-3-20T13:15:28Z
2023-03-20T11:15:48Z,42.805,6.029,13.3054,4.60151,2470.67,2023-3-20T13:18:31Z
2023-03-20T11:18:51Z,42.805,6.029,13.3039,4.60142,2470.67,2023-3-20T13:21:34Z
2023-03-20T11:21:54Z,42.805,6.029,13.3056,4.60157,2470.67,2023-3-20T13:24:37Z
2023-03-20T11:24:58Z,42.805,6.029,13.3056,4.60150,2470.646,2023-3-20T13:27:40Z
2023-03-20T11:28:01Z,42.805,6.029,13.3054,4.60135,2470.624,2023-3-20T13:30:43Z
2023-03-20T11:31:04Z,42.805,6.029,13.3051,4.60139,2470.684,2023-3-20T13:33:46Z
2023-03-20T11:34:07Z,42.805,6.029,13.3032,4.60128,2470.693,2023-3-20T13:36:49Z
2023-03-20T11:37:10Z,42.805,6.029,13.3047,4.60133,2470.67,2023-3-20T13:39:52Z
2023-03-20T11:40:13Z,42.805,6.029,13.3031,4.60105,2470.684,2023-3-20T13:42:55Z
2023-03-20T11:43:16Z,42.805,6.029,13.3032,4.60137,2470.646,2023-3-20T13:45:58Z
2023-03-20T11:46:19Z,42.805,6.029,13.3063,4.60145,2470.614,2023-3-20T13:49:02Z
2023-03-20T11:49:22Z,42.805,6.029,13.3048,4.60125,2470.624,2023-3-20T13:52:05Z
2023-03-20T11:52:25Z,42.805,6.029,13.3040,4.60149,2470.646,2023-3-20T13:55:08Z
2023-03-20T11:55:28Z,42.805,6.029,13.3039,4.60101,2470.624,2023-3-20T13:58:11Z
2023-03-20T11:58:31Z,42.805,6.029,13.3026,4.60112,2470.67,2023-3-20T14:01:14Z
2023-03-20T12:01:35Z,42.805,6.029,13.3034,4.60111,2470.637,2023-3-20T14:04:17Z
2023-03-20T12:04:38Z,42.805,6.029,13.3046,4.60137,2470.624,2023-3-20T14:07:20Z
2023-03-20T12:07:41Z,42.805,6.029,13.3041,4.60135,2470.646,2023-3-20T14:10:23Z
2023-03-20T12:10:44Z,42.805,6.029,13.3041,4.60127,2470.661,2023-3-20T14:13:26Z
2023-03-20T12:13:47Z,42.805,6.029,13.3034,4.60109,2470.661,2023-3-20T14:16:29Z
2023-03-20T12:16:50Z,42.805,6.029,13.3028,4.60099,2470.624,2023-3-20T14:19:32Z
2023-03-20T12:19:53Z,42.805,6.029,13.3040,4.60110,2470.646,2023-3-20T14:22:35Z
2023-03-20T12:22:56Z,42.805,6.029,13.3039,4.60109,2470.624,2023-3-20T14:25:39Z
2023-03-20T12:25:59Z,42.805,6.029,13.3035,4.60134,2470.637,2023-3-20T14:28:42Z
2023-03-20T12:29:02Z,42.805,6.029,13.3046,4.60145,2470.624,2023-3-20T14:31:45Z
2023-03-20T12:32:05Z,42.805,6.029,13.3037,4.60127,2470.614,2023-3-20T14:34:48Z
2023-03-20T12:35:09Z,42.805,6.029,13.3031,4.60155,2470.614,2023-3-20T14:37:51Z
2023-03-20T12:38:12Z,42.805,6.029,13.3051,4.60154,2470.637,2023-3-20T14:40:54Z
2023-03-20T12:41:15Z,42.805,6.029,13.3041,4.60092,2470.624,2023-3-20T14:43:57Z
2023-03-20T12:44:18Z,42.805,6.029,13.3042,4.60140,2470.624,2023-3-20T14:47:00Z
2023-03-20T12:47:21Z,42.805,6.029,13.3040,4.60125,2470.637,2023-3-20T14:50:03Z
2023-03-20T12:50:24Z,42.805,6.029,13.3038,4.60117,2470.624,2023-3-20T14:53:06Z
2023-03-20T12:53:27Z,42.805,6.029,13.3038,4.60147,2470.6,2023-3-20T14:56:09Z
2023-03-20T12:56:30Z,42.805,6.029,13.3051,4.60144,2470.567,2023-3-20T14:59:12Z
2023-03-20T12:59:33Z,42.805,6.029,13.3040,4.60137,2470.614,2023-3-20T15:02:16Z
2023-03-20T13:02:36Z,42.805,6.029,13.3043,4.60150,2470.577,2023-3-20T15:05:19Z
2023-03-20T13:05:39Z,42.805,6.029,13.3043,4.60135,2470.577,2023-3-20T15:08:22Z
2023-03-20T13:08:42Z,42.805,6.029,13.3054,4.60137,2470.614,2023-3-20T15:11:25Z
2023-03-20T13:11:46Z,42.805,6.029,13.3041,4.60132,2470.614,2023-3-20T15:14:28Z
2023-03-20T13:14:49Z,42.805,6.029,13.3046,4.60132,2470.577,2023-3-20T15:17:31Z
2023-03-20T13:17:52Z,42.805,6.029,13.3048,4.60137,2470.614,2023-3-20T15:20:34Z
2023-03-20T13:20:55Z,42.805,6.029,13.3042,4.60123,2470.553,2023-3-20T15:23:37Z
2023-03-20T13:23:58Z,42.805,6.029,13.3047,4.60142,2470.6,2023-3-20T15:26:40Z
2023-03-20T13:27:01Z,42.805,6.029,13.3051,4.60142,2470.6,2023-3-20T15:29:43Z
2023-03-20T13:30:04Z,42.805,6.029,13.3041,4.60147,2470.614,2023-3-20T15:32:46Z
2023-03-20T13:33:07Z,42.805,6.029,13.3031,4.60120,2470.591,2023-3-20T15:35:50Z
2023-03-20T13:36:10Z,42.805,6.029,13.3038,4.60119,2470.591,2023-3-20T15:38:53Z
2023-03-20T13:39:13Z,42.805,6.029,13.3039,4.60131,2470.567,2023-3-20T15:41:56Z
2023-03-20T13:42:16Z,42.805,6.029,13.3036,4.60123,2470.6,2023-3-20T15:44:59Z
2023-03-20T13:45:19Z,42.805,6.029,13.3043,4.60140,2470.577,2023-3-20T15:48:02Z
2023-03-20T13:48:23Z,42.805,6.029,13.3043,4.60132,2470.591,2023-3-20T15:51:05Z
2023-03-20T13:51:26Z,42.805,6.029,13.3049,4.60141,2470.577,2023-3-20T15:54:08Z
2023-03-20T13:54:29Z,42.805,6.029,13.3039,4.60146,2470.577,2023-3-20T15:57:11Z
2023-03-20T13:57:32Z,42.805,6.029,13.3032,4.60106,2470.553,2023-3-20T16:00:14Z
2023-03-20T14:00:35Z,42.805,6.029,13.3045,4.60137,2470.577,2023-3-20T16:03:17Z
2023-03-20T14:03:38Z,42.805,6.029,13.3041,4.60125,2470.6,2023-3-20T16:06:20Z
2023-03-20T14:06:41Z,42.805,6.029,13.3041,4.60102,2470.6,2023-3-20T16:09:23Z
2023-03-20T14:09:44Z,42.805,6.029,13.3051,4.60128,2470.577,2023-3-20T16:12:27Z
2023-03-20T14:12:47Z,42.805,6.029,13.3039,4.60105,2470.6,2023-3-20T16:15:30Z
2023-03-20T14:15:50Z,42.805,6.029,13.3044,4.60119,2470.624,2023-3-20T16:18:33Z
2023-03-20T14:18:53Z,42.805,6.029,13.3038,4.60127,2470.577,2023-3-20T16:21:36Z
2023-03-20T14:21:56Z,42.805,6.029,13.3043,4.60109,2470.591,2023-3-20T16:24:39Z
2023-03-20T14:25:00Z,42.805,6.029,13.3054,4.60096,2470.624,2023-3-20T16:27:42Z
2023-03-20T14:28:03Z,42.805,6.029,13.3043,4.60101,2470.6,2023-3-20T16:30:45Z
2023-03-20T14:31:06Z,42.805,6.029,13.3036,4.60103,2470.6,2023-3-20T16:33:48Z
2023-03-20T14:34:09Z,42.805,6.029,13.3038,4.60108,2470.6,2023-3-20T16:36:51Z
2023-03-20T14:37:12Z,42.805,6.029,13.3040,4.60121,2470.586,2023-3-20T16:39:54Z
2023-03-20T14:40:15Z,42.805,6.029,13.3057,4.60110,2470.6,2023-3-20T16:42:57Z
2023-03-20T14:43:18Z,42.805,6.029,13.3049,4.60104,2470.6,2023-3-20T16:46:00Z
2023-03-20T14:46:21Z,42.805,6.029,13.3043,4.60097,2470.577,2023-3-20T16:49:04Z
2023-03-20T14:49:24Z,42.805,6.029,13.3042,4.60102,2470.637,2023-3-20T16:52:07Z
2023-03-20T14:52:27Z,42.805,6.029,13.3046,4.60097,2470.614,2023-3-20T16:55:10Z
2023-03-20T14:55:30Z,42.805,6.029,13.3031,4.60111,2470.577,2023-3-20T16:58:13Z
2023-03-20T14:58:34Z,42.805,6.029,13.3042,4.60104,2470.6,2023-3-20T17:01:16Z
2023-03-20T15:01:37Z,42.805,6.029,13.3053,4.60113,2470.6,2023-3-20T17:04:19Z
2023-03-20T15:04:40Z,42.805,6.029,13.3042,4.60093,2470.637,2023-3-20T17:07:22Z
2023-03-20T15:07:43Z,42.805,6.029,13.3035,4.60098,2470.6,2023-3-20T17:10:25Z
2023-03-20T15:10:46Z,42.805,6.029,13.3033,4.60092,2470.6,2023-3-20T17:13:28Z
2023-03-20T15:13:49Z,42.805,6.029,13.3037,4.60084,2470.637,2023-3-20T17:16:31Z